Stations météo

réclame
Mon MeteoGroup
Bournemouth Airport, Grande-Bretagne (3862): Température de l'air & dewpoint: 15.02.2019 14:00:00 - 21.02.2019 14:00:00 (GMT)Bournemouth Airport, Grande-Bretagne (3862): Température de l'air -20cm & Température de l'air -100cm: 15.02.2019 14:00:00 - 21.02.2019 14:00:00 (GMT)Bournemouth Airport, Grande-Bretagne (3862): Vitesse du vent: 15.02.2019 14:00:00 - 21.02.2019 14:00:00 (GMT)Bournemouth Airport, Grande-Bretagne (3862): Direction du vent: 15.02.2019 14:00:00 - 21.02.2019 14:00:00 (GMT)Bournemouth Airport, Grande-Bretagne (3862): reduced air pressure: 15.02.2019 14:00:00 - 21.02.2019 14:00:00 (GMT)Bournemouth Airport, Grande-Bretagne (3862): visibility: 15.02.2019 14:00:00 - 21.02.2019 14:00:00 (GMT)Bournemouth Airport, Grande-Bretagne (3862): Ensoleillement: 15.02.2019 14:00:00 - 21.02.2019 14:00:00 (GMT)Bournemouth Airport, Grande-Bretagne (3862): Quantités de précipitations: 15.02.2019 14:00:00 - 21.02.2019 14:00:00 (GMT)
Date & Time tt [°C] td [°C] tt -20cm [°C] tt -100cm [°C] ff [km/h] ff [knt] dd ppp [hPa] vv [km] sd [min] rr [mm]
21.02.2019 14:00:00 11,8 8,6 - - 13 7 SW 1027,4 19 0 0,0
21.02.2019 13:00:00 11,7 8,9 - - 15 8 WSW 1027,4 10 0 0,0
21.02.2019 12:00:00 12,0 9,3 - - 13 7 WSW 1027,1 10 0 0,0
21.02.2019 11:00:00 11,8 9,5 - - 18 10 WSW 1026,8 18 0 0,0
21.02.2019 10:00:00 10,8 9,1 - - 9 5 WSW 1026,4 10 0 0,0
21.02.2019 09:00:00 10,2 8,8 7,2 7,2 9 5 SW 1025,9 10 0 0,0
21.02.2019 08:00:00 9,3 8,2 - - 5 3 SSE 1025,6 10 0 0,0
21.02.2019 07:00:00 8,6 7,8 - - 5 3 SW 1024,8 10 0 0,0
21.02.2019 06:00:00 8,8 7,8 - - 9 5 SW 1024,3 14 0 0,0
21.02.2019 05:00:00 8,5 7,5 - - 8 4 SSW 1024,1 15 0 0,0
21.02.2019 04:00:00 8,9 7,9 - - 15 8 SSW 1023,3 15 0 0,0
21.02.2019 03:00:00 9,1 7,9 - - 13 7 SSW 1023,3 17 0 0,0
21.02.2019 02:00:00 8,2 7,0 - - 11 6 SSW 1023,4 15 0 0,0
21.02.2019 01:00:00 8,2 7,0 - - 9 5 SSW 1023,3 13 0 0,0
21.02.2019 00:00:00 8,6 7,2 - - 13 7 SSW 1022,8 9 - 0,0
20.02.2019 23:00:00 9,1 7,3 - - 15 8 SSW 1022,6 10 0 0,0
20.02.2019 22:00:00 8,8 7,4 - - 16 9 SSW 1022,4 10 0 0,0
20.02.2019 21:00:00 8,9 7,5 - - 18 10 SSW 1022,2 11 0 0,0
20.02.2019 20:00:00 8,8 7,3 - - 15 8 SSW 1022,2 14 0 0,0
20.02.2019 19:00:00 8,8 7,7 - - 15 8 SSW 1021,6 14 0 0,0
20.02.2019 18:00:00 8,5 7,2 - - 15 8 S 1021,0 15 6 0,0
20.02.2019 17:00:00 9,3 7,2 - - 15 8 SSW 1020,9 17 12 0,0
20.02.2019 16:00:00 10,0 7,3 - - 16 9 SSW 1020,8 18 30 0,0
20.02.2019 15:00:00 10,5 7,4 - - 22 12 SSW 1020,7 17 36 -
20.02.2019 14:00:00 10,9 7,9 - - 22 12 SSW 1020,6 16 12 -
20.02.2019 13:00:00 10,7 7,5 - - 22 12 SSW 1020,8 10 24 0,0
20.02.2019 12:00:00 10,6 7,7 - - 22 12 SSW 1020,6 10 30 0,0
20.02.2019 11:00:00 10,4 7,7 - - 22 12 SSW 1020,4 10 12 0,0
20.02.2019 10:00:00 9,6 7,5 - - 18 10 SSW 1020,1 10 0 0,0
20.02.2019 09:00:00 9,2 7,1 6,7 7,2 16 9 SSW 1019,6 10 0 0,0
20.02.2019 08:00:00 8,6 7,0 - - 16 9 SSW 1019,1 16 0 0,0
20.02.2019 07:00:00 8,3 6,2 - - 15 8 SSW 1018,5 10 0 0,0
20.02.2019 06:00:00 8,3 6,1 - - 15 8 SSW 1018,4 10 0 0,0
20.02.2019 05:00:00 8,6 6,3 - - 15 8 SSW 1018,3 17 0 0,0
20.02.2019 04:00:00 8,6 6,3 - - 16 9 SSW 1018,2 17 0 0,0
20.02.2019 03:00:00 8,6 6,8 - - 13 7 SSW 1018,6 16 0 0,0
20.02.2019 02:00:00 8,4 6,4 - - 13 7 SSW 1018,8 19 0 0,0
20.02.2019 01:00:00 8,6 7,0 - - 16 9 SSW 1019,0 13 0 0,0
20.02.2019 00:00:00 8,4 7,3 - - 22 12 SSW 1018,8 9 - 0,0
19.02.2019 23:00:00 8,3 6,7 - - 21 11 SSW 1019,1 10 0 0,0
19.02.2019 22:00:00 8,2 6,3 - - 18 10 SSW 1019,4 16 0 0,0
19.02.2019 21:00:00 8,1 6,4 - - 15 8 SSW 1019,3 18 0 0,0
19.02.2019 20:00:00 7,5 5,6 - - 11 6 SSW 1019,4 17 0 0,0
19.02.2019 19:00:00 7,8 5,8 - - 11 6 SSW 1019,3 18 0 0,0
19.02.2019 18:00:00 8,4 5,9 - - 13 7 SSW 1019,1 10 0 0,0
19.02.2019 17:00:00 9,3 5,8 - - 15 8 SW 1019,1 21 0 0,0
19.02.2019 16:00:00 9,8 5,8 - - 16 9 SW 1019,3 24 12 0,0
19.02.2019 15:00:00 10,7 4,8 - - 21 11 SW 1019,5 10 24 0,0
19.02.2019 14:00:00 9,5 4,5 - - 22 12 WSW 1019,7 10 6 0,0
19.02.2019 13:00:00 10,1 5,0 - - 18 10 WSW 1020,0 10 24 0,0
19.02.2019 12:00:00 10,8 6,2 - - 18 10 WSW 1020,3 10 42 0,0
19.02.2019 11:00:00 10,0 6,5 - - 15 8 WSW 1020,4 10 60 0,0
19.02.2019 10:00:00 8,3 8,0 - - 9 5 WSW 1020,3 18 60 0,0
19.02.2019 09:00:00 1,3 1,1 6,7 7,2 4 2 WNW 1020,1 8 24 0,0
19.02.2019 08:00:00 -1,8 -2,1 - - 4 2 N 1019,7 3,3 0 0,2
19.02.2019 07:00:00 -1,9 -2,4 - - 2 1 N 1019,2 1,1 0 0,0
19.02.2019 06:00:00 0,9 0,4 - - 4 2 WSW 1019,0 3,2 0 0,0
19.02.2019 05:00:00 1,2 0,6 - - 8 4 WSW 1018,9 0,3 0 0,0
19.02.2019 04:00:00 3,2 2,7 - - 9 5 W 1018,5 14 0 0,0
19.02.2019 03:00:00 3,4 2,8 - - 11 6 WSW 1018,5 19 0 0,0
19.02.2019 02:00:00 3,3 2,7 - - 9 5 WSW 1018,6 19 0 0,0
19.02.2019 01:00:00 2,0 1,3 - - 9 5 W 1018,4 16 0 0,0
19.02.2019 00:00:00 2,4 2,0 - - 11 6 WSW 1017,9 17 - 0,0
18.02.2019 23:00:00 1,2 1,0 - - 9 5 WSW 1017,8 12 0 0,0
18.02.2019 22:00:00 1,2 1,1 - - 2 1 SSW 1017,7 1,6 0 0,0
18.02.2019 21:00:00 1,7 1,4 - - 2 1 NW 1017,4 0,2 0 0,0
18.02.2019 20:00:00 2,5 2,1 - - 2 1 NNE 1016,8 0,4 0 0,0
18.02.2019 19:00:00 4,5 3,8 - - 5 3 WSW 1016,1 5 0 0,0
18.02.2019 18:00:00 6,6 6,0 - - 2 1 E 1015,3 21 18 0,0
18.02.2019 17:00:00 8,1 6,3 - - 5 3 WSW 1014,9 30 12 0,8
18.02.2019 16:00:00 9,4 7,5 - - 16 9 SW 1015,0 10 0 0,0
18.02.2019 15:00:00 9,0 6,7 - - 15 8 SSW 1014,8 10 0 0,0
18.02.2019 14:00:00 9,1 6,8 - - 15 8 SSW 1014,9 10 0 0,0
18.02.2019 13:00:00 9,0 7,0 - - 16 9 SW 1015,0 10 0 0,0
18.02.2019 12:00:00 8,8 7,7 - - 21 11 SSW 1015,4 18 0 0,6
18.02.2019 11:00:00 9,0 7,9 - - 16 9 SSW 1015,6 10 0 0,2
18.02.2019 10:00:00 9,0 6,5 - - 15 8 SSW 1015,5 18 0 0,2
18.02.2019 09:00:00 9,1 7,0 7,0 7,0 11 6 SSW 1015,5 12 0 0,0
18.02.2019 08:00:00 9,5 6,0 - - 15 8 SW 1015,2 10 0 0,0
18.02.2019 07:00:00 9,6 8,3 - - 16 9 SW 1014,7 10 0 0,0
18.02.2019 06:00:00 9,1 8,0 - - 16 9 SSW 1014,8 10 0 0,0
18.02.2019 05:00:00 9,2 8,0 - - 8 4 S 1015,0 14 0 0,0
18.02.2019 04:00:00 8,7 7,7 - - 5 3 SW 1015,3 13 0 0,0
18.02.2019 03:00:00 8,5 7,8 - - 8 4 SSW 1015,5 13 0 0,0
18.02.2019 02:00:00 8,5 7,9 - - 5 3 S 1015,9 12 0 0,0
18.02.2019 01:00:00 9,0 7,8 - - 8 4 SSW 1016,0 13 0 0,0
18.02.2019 00:00:00 8,9 7,7 - - 11 6 SW 1016,0 13 - 0,0
17.02.2019 23:00:00 8,3 7,4 - - 9 5 WSW 1016,1 13 0 0,0
17.02.2019 22:00:00 8,1 7,9 - - 5 3 SE 1015,9 10 0 0,0
17.02.2019 21:00:00 6,7 6,3 - - 5 3 ENE 1015,6 9 0 0,0
17.02.2019 20:00:00 8,7 7,5 - - 5 3 SSW 1015,6 11 0 0,0
17.02.2019 19:00:00 9,5 8,1 - - 9 5 SW 1015,5 10 0 0,0
17.02.2019 18:00:00 9,8 8,6 - - 16 9 SSW 1015,2 10 0 0,0
17.02.2019 17:00:00 9,9 8,6 - - 15 8 SSW 1014,8 10 0 0,0
17.02.2019 16:00:00 11,2 9,2 - - 16 9 SSW 1014,7 12 0 0,0
17.02.2019 15:00:00 10,9 8,9 - - 18 10 SSW 1014,6 10 0 0,0
17.02.2019 14:00:00 11,0 8,9 - - 18 10 SSW 1014,4 10 0 0,0
17.02.2019 13:00:00 11,0 8,6 - - 21 11 SSW 1014,5 10 0 0,0
17.02.2019 12:00:00 10,8 8,2 - - 15 8 S 1014,8 10 24 -
17.02.2019 11:00:00 11,1 8,0 - - 11 6 S 1014,9 3,0 36 -
17.02.2019 10:00:00 11,1 8,2 - - 11 6 SW 1014,8 13 60 0,0
17.02.2019 09:00:00 9,8 6,8 6,7 7,0 11 6 SSE 1014,3 10 18 0,0
17.02.2019 08:00:00 8,4 6,0 - - 11 6 SSE 1014,2 11 0 0,0
17.02.2019 07:00:00 8,4 6,7 - - 15 8 S 1014,3 8 0 0,2
17.02.2019 06:00:00 4,6 3,9 - - 8 4 E 1014,6 1,1 0 0,0
17.02.2019 05:00:00 7,1 6,2 - - 8 4 SE 1015,3 4,3 0 0,0
17.02.2019 04:00:00 7,7 6,3 - - 11 6 SE 1015,8 5 0 0,0
17.02.2019 03:00:00 8,3 7,0 - - 15 8 SE 1016,6 5 0 0,0
17.02.2019 02:00:00 8,3 7,0 - - 11 6 SE 1017,8 6 0 0,0
17.02.2019 01:00:00 8,8 7,7 - - 16 9 SE 1018,6 7 0 0,0
17.02.2019 00:00:00 8,9 7,7 - - 11 6 SW 1016,0 13 - 0,0
16.02.2019 23:00:00 8,2 7,7 - - 8 4 S 1020,0 10 0 0,0
16.02.2019 22:00:00 9,4 8,1 - - 8 4 SSE 1020,5 10 0 0,0
16.02.2019 21:00:00 10,2 9,0 - - 13 7 S 1020,9 10 0 0,0
16.02.2019 20:00:00 9,8 9,0 - - 13 7 SSW 1021,4 9 0 0,0
16.02.2019 19:00:00 9,7 9,0 - - 16 9 S 1021,6 7 0 0,0
16.02.2019 18:00:00 9,6 9,0 - - 16 9 S 1021,6 4,0 0 0,0
16.02.2019 17:00:00 9,8 9,1 - - 15 8 SSW 1021,5 6 0 0,0
16.02.2019 16:00:00 10,1 9,3 - - 16 9 SSW 1021,8 8 0 0,0
16.02.2019 15:00:00 10,3 9,4 - - 13 7 SSW 1022,3 8 0 0,0
16.02.2019 14:00:00 10,3 9,5 - - 15 8 SSW 1022,9 7 0 0,0
16.02.2019 13:00:00 10,9 10,3 - - 13 7 SSW 1023,3 9 0 0,0
16.02.2019 12:00:00 10,6 10,0 - - 13 7 S 1023,6 4,0 0 0,0
16.02.2019 11:00:00 10,8 10,2 - - 11 6 SSW 1023,8 7 0 0,0
16.02.2019 10:00:00 10,8 10,3 - - 9 5 SSW 1023,5 4,0 0 0,0
16.02.2019 09:00:00 10,4 10,2 6,0 7,0 9 5 SW 1023,5 4,0 0 0,0
16.02.2019 08:00:00 10,2 9,9 - - 11 6 SW 1023,0 4,0 0 0,0
16.02.2019 07:00:00 10,0 9,9 - - 5 3 SW 1022,7 4,0 0 0,0
16.02.2019 06:00:00 9,7 9,6 - - 8 4 SSW 1022,6 4,0 0 0,0
16.02.2019 05:00:00 9,2 9,0 - - 8 4 SW 1022,6 5 0 0,0
16.02.2019 04:00:00 3,7 3,5 - - 2 1 S 1022,5 5 0 0,0
16.02.2019 03:00:00 2,3 2,1 - - 4 2 ENE 1022,9 2,8 0 0,0
16.02.2019 02:00:00 1,2 1,0 - - 2 1 WNW 1023,4 0,8 0 0,0
16.02.2019 01:00:00 0,9 0,7 - - 2 1 W 1023,7 - 0 0,0
16.02.2019 00:00:00 -0,1 -0,4 - - 5 3 N 1023,8 0,1 - 0,0
15.02.2019 23:00:00 0,7 0,3 - - 4 2 ESE 1023,7 0,2 0 0,0
15.02.2019 22:00:00 1,3 0,9 - - 4 2 ESE 1024,0 0,2 0 0,0
15.02.2019 21:00:00 3,3 2,7 - - 2 1 SSE 1024,3 0,5 0 0,0
15.02.2019 20:00:00 6,5 6,2 - - 9 5 SSE 1024,4 5 0 0,0
15.02.2019 19:00:00 7,0 6,1 - - 4 2 SSE 1024,8 5 0 0,0
15.02.2019 18:00:00 7,9 6,4 - - 9 5 SSE 1024,7 8 12 0,0
15.02.2019 17:00:00 9,5 6,4 - - 11 6 SSE 1024,5 10 48 0,0
15.02.2019 16:00:00 11,1 6,5 - - 13 7 SSE 1024,7 10 60 0,0
15.02.2019 15:00:00 11,3 6,3 - - 16 9 S 1025,2 10 60 0,0
15.02.2019 14:00:00 11,7 6,3 - - 16 9 S 1025,7 10 60 0,0

tt = Température de l'air
td = dewpoint
tt -20cm = Température de l'air -20cm
tt -100cm = Température de l'air -100cm
ff = Vitesse du vent
dd = Direction du vent
ppp = reduced air pressure
vv = visibility
sd = Ensoleillement
rr = Quantités de précipitations

stations d'obs. à proximité